Weather History for KLBB - May, 2013

Change the Weather History Date:

Saturday, May 18, 2013

  Actual Average Record
Temperature  
Mean Temperature 87 °F 70 °F  
Max Temperature 100 °F 84 °F 103 °F (2003)
Min Temperature 73 °F 57 °F 42 °F (1916)
Degree Days  
Heating Degree Days 0 1  
Month to date heating degree days 86 31  
Since 1 July heating degree days 3208 3368  
Cooling Degree Days 22 7  
Month to date cooling degree days 83 85  
Year to date cooling degree days 145 141  
Growing Degree Days 36 (Base 50)    
Moisture  
Dew Point 34 °F    
Average Humidity 28    
Maximum Humidity 50    
Minimum Humidity 6    
Precipitation  
Precipitation 0.00 in 0.08 in 1.39 in (2007)
Month to date precipitation 0.35 1.13  
Year to date precipitation 2.62 5.04  
Snow  
Snow 0.00 in 0.00 in 0.00 in (2002)
Month to date snowfall 0.0 0.0  
Since 1 July snowfall 4.1 8.2  
Snow Depth 0.00 in    
Sea Level Pressure  
Sea Level Pressure 29.62 in    
Wind  
Wind Speed 16 mph (SW)    
Max Wind Speed 41 mph    
Max Gust Speed 59 mph    
Visibility 10 miles    
Events      
T = Trace of Precipitation, MM = Missing Value Source: NWS Daily Summary

Daily Weather History Graph

Daily Weather History Graph

Search for Another Location

Airport or City:

Trip Planner

Search our weather history database for the weather conditions in past years. The results will help you decide how hot, cold, wet, or windy it might be!

Date:

Astronomy

May. 18, 2013 Rise Set
Actual Time 6:44 AM CDT 8:43 PM CDT
Civil Twilight 6:16 AM CDT 9:11 PM CDT
Nautical Twilight 5:42 AM CDT 9:45 PM CDT
Astronomical Twilight 5:07 AM CDT 10:21 PM CDT
Moon 2:07 PM CDT (5/18) 2:17 AM CDT (5/18)
Length of Visible Light 14h 54m
Length of Day
13h 59m
First Quarter, 55% of the Moon is Illuminated
May 18
First Quarter
May 24
Full
May 31
Last Quarter
Jun 8
New
Jun 16
First Quarter

Hourly Weather History & Observations

Time (CDT) Temp. Heat Index Dew Point Humidity Pressure Visibility Wind Dir Wind Speed Gust Speed Precip Events Conditions
12:53 AM 87.1 °F - 30.9 °F 13% 29.65 in 6.0 mi SSW 20.7 mph 27.6 mph N/A   Widespread Dust
1:53 AM 86.0 °F - 41.0 °F 20% 29.67 in 10.0 mi SSW 24.2 mph 34.5 mph N/A   Mostly Cloudy
2:53 AM 82.9 °F - 42.1 °F 24% 29.64 in 10.0 mi SSW 24.2 mph 32.2 mph N/A   Mostly Cloudy
3:53 AM 80.1 °F - 43.0 °F 27% 29.65 in 10.0 mi SSW 19.6 mph 28.8 mph N/A   Scattered Clouds
4:53 AM 73.9 °F - 43.0 °F 33% 29.65 in 10.0 mi South 12.7 mph - N/A   Partly Cloudy
5:53 AM 75.9 °F - 48.0 °F 37% 29.65 in 10.0 mi SSW 16.1 mph - N/A   Scattered Clouds
6:53 AM 73.9 °F - 51.1 °F 45% 29.67 in 10.0 mi SW 13.8 mph - N/A   Scattered Clouds
7:53 AM 75.0 °F - 55.0 °F 50% 29.69 in 10.0 mi SW 17.3 mph - N/A   Scattered Clouds
8:53 AM 79.0 °F - 57.0 °F 47% 29.69 in 10.0 mi SW 20.7 mph 26.5 mph N/A   Scattered Clouds
9:53 AM 82.0 °F 81.2 °F 53.1 °F 37% 29.70 in 10.0 mi WSW 15.0 mph 21.9 mph N/A   Scattered Clouds
10:53 AM 87.1 °F - 48.9 °F 27% 29.69 in 10.0 mi SW 13.8 mph - N/A   Scattered Clouds
11:53 AM 91.0 °F - 44.1 °F 20% 29.67 in 10.0 mi SSW 10.4 mph 17.3 mph N/A   Mostly Cloudy
12:53 PM 93.9 °F - 36.0 °F 13% 29.64 in 10.0 mi SSW 12.7 mph 20.7 mph N/A   Scattered Clouds
1:53 PM 93.2 °F - 24.8 °F 9% 29.81 in 10.0 mi SSE 6.9 mph 17.3 mph N/A   Mostly Cloudy
2:53 PM 96.1 °F - 28.0 °F 9% 29.58 in 10.0 mi SW 10.4 mph 19.6 mph N/A   Mostly Cloudy
3:53 PM 100.0 °F - 24.1 °F 7% 29.56 in 10.0 mi SW 20.7 mph 26.5 mph N/A   Scattered Clouds
4:53 PM 98.1 °F - 25.0 °F 7% 29.54 in 10.0 mi SSW 20.7 mph 28.8 mph N/A   Scattered Clouds
5:53 PM 97.0 °F - 24.1 °F 7% 29.52 in 10.0 mi SW 19.6 mph 26.5 mph N/A   Scattered Clouds
6:41 PM 96.8 °F - 19.4 °F 6% 29.69 in 10.0 mi West 16.1 mph 24.2 mph N/A   Scattered Clouds
6:53 PM 96.1 °F - 18.0 °F 6% 29.50 in 10.0 mi WSW 18.4 mph 29.9 mph N/A   Scattered Clouds
7:53 PM 93.0 °F - 16.0 °F 6% 29.51 in 10.0 mi WSW 21.9 mph - N/A   Partly Cloudy
8:53 PM 87.1 °F - 15.1 °F 7% 29.53 in 10.0 mi WSW 13.8 mph - N/A   Partly Cloudy
9:53 PM 84.9 °F - 17.1 °F 8% 29.54 in 10.0 mi SW 18.4 mph - N/A   Partly Cloudy
10:53 PM 80.1 °F - 18.0 °F 10% 29.57 in 10.0 mi SW 11.5 mph - N/A   Clear
11:53 PM 80.1 °F - 18.0 °F 10% 29.57 in 10.0 mi SW 17.3 mph - N/A   Clear